This demonstration page uses our WeatherBlox Daily Observations layout. Learn more.

Left ArrowRight Arrow

Hourly Observations for December 6, 2015

Temp ( °F °C ) Dew Point ( °F °C ) Humidity (%) Winds ( mph kmh ) Pressure ( in mb ) Visibility ( mi km ) Precip ( " mm )
12:53 am 00:53 Mostly Cloudy with Freezing Fog 27 -2.8 25 -3.9 92 92 Calm 30.58 1036 0 0 0.00 0.00
1:53 am 01:53 Mostly Cloudy with Freezing Fog 26 -3.3 25 -3.9 96 96 Calm 30.56 1035 0 0 0.00 0.00
2:53 am 02:53 Mostly Cloudy with Freezing Fog 25 -3.9 23 -5 92 92 E 3 6 30.54 1034 1 1 0.00 0.00
2:58 am 02:58 Mostly Cloudy with Mist and Fog 24 -4.4 22 -5.6 91 91 Calm 30.56 1035 2 3 0.00 0.00
3:02 am 03:02 Partly Cloudy with Mist and Fog 24 -4.4 22 -5.6 91 91 Calm 30.56 1035 5 8 0.00 0.00
3:35 am 03:35 Clear with Mist and Fog 23 -5 23 -5 100 100 Calm 30.53 1034 2 2 0.00 0.00
3:44 am 03:44 Clear with Freezing Fog 23 -5 22 -5.6 96 96 Calm 30.53 1034 1 1 0.00 0.00
3:49 am 03:49 Mostly Cloudy with Mist and Fog 23 -5 21 -6 93 93 Calm 30.53 1034 1 2 0.00 0.00
3:53 am 03:53 Mostly Cloudy with Mist and Fog 23 -5 22 -5.6 96 96 Calm 30.53 1034 1 1 0.00 0.00
4:53 am 04:53 Mostly Cloudy with Freezing Fog 24 -4.4 24 -4.4 100 100 Calm 30.51 1033 1 1 0.00 0.00
5:53 am 05:53 Mostly Cloudy with Freezing Fog 25 -3.9 25 -3.9 100 100 Calm 30.52 1034 0 0 0.00 0.00
6:53 am 06:53 Mostly Cloudy with Freezing Fog 25 -3.9 25 -3.9 100 100 Calm 30.52 1034 0 0 0.00 0.00
7:53 am 07:53 Mostly Cloudy with Freezing Fog 24 -4.4 24 -4.4 100 100 Calm 30.51 1033 5 8 0.00 0.00
8:50 am 08:50 Mostly Cloudy with Mist and Fog 27 -3 27 -3 100 100 Calm 30.50 1033 2 3 0.00 0.00
8:53 am 08:53 Partly Cloudy with Mist and Fog 26 -3.3 25 -3.9 96 96 Calm 30.49 1033 4 6 0.00 0.00
9:53 am 09:53 Sunny with Mist and Fog 30 -1.1 30 -1.1 100 100 Calm 30.49 1032 5 8 0.00 0.00
10:53 am 10:53 Sunny with Mist and Fog 33 0.6 33 0.6 100 100 Calm 30.47 1032 5 8 0.00 0.00
11:53 am 11:53 Sunny 40 4.4 35 1.7 83 83 WNW 3 6 30.45 1031 8 13 0.00 0.00
12:53 pm 12:53 Sunny 46 7.8 36 2.2 68 68 WSW 5 7 30.41 1030 10 16 0.00 0.00
1:53 pm 13:53 Sunny 50 10 36 2.2 59 59 VRB 3 6 30.37 1029 10 16 0.00 0.00
2:53 pm 14:53 Sunny 55 12.8 32 0 42 42 S 6 9 30.33 1027 10 16 0.00 0.00
3:53 pm 15:53 Sunny 55 12.8 30 -1.1 38 38 undefined N/A 30.29 1026 10 16 0.00 0.00
4:53 pm 16:53 Sunny 52 11.1 30 -1.1 43 43 S 3 6 30.30 1026 10 16 0.00 0.00
5:53 pm 17:53 Clear 38 3.3 31 -0.6 76 76 Calm 30.30 1026 10 16 0.00 0.00
6:53 pm 18:53 Clear 34 1.1 28 -2.2 79 79 Calm 30.30 1026 10 16 0.00 0.00
7:53 pm 19:53 Clear 31 -0.6 27 -2.8 85 85 E 3 6 30.29 1026 10 16 0.00 0.00
8:53 pm 20:53 Clear 31 -0.6 27 -2.8 85 85 Calm 30.28 1025 10 16 0.00 0.00
9:53 pm 21:53 Clear 31 -0.6 28 -2.2 89 89 Calm 30.27 1025 10 16 0.00 0.00
10:53 pm 22:53 Cloudy 34 1.1 31 -0.6 89 89 Calm 30.27 1025 10 16 0.00 0.00
11:53 pm 23:53 Cloudy 37 2.8 34 1.1 89 89 Calm 30.26 1025 10 16 0.00 0.00

Powered by AerisWeather